Location: Austin
(30.3000°N, 97.7500°W)
Time: 12:26:27
(UTC-06:00)

Cosmos 1733 Rocket - Pass Details

Date: 04 November 2025
Orbit: 596 x 622 km, 82.5° (Epoch: 07 November)

Event Time Altitude Azimuth Distance (km) Brightness Sun altitude
Rises 18:00:02 0° 193° (SSW) 2,861 6.9 -4.8°
Reaches altitude 10° 18:02:17 10° 198° (SSW) 1,956 6.1 -5.3°
Maximum altitude 18:06:32 58° 277° (W) 710 3.8 -6.2°
Drops below altitude 10° 18:10:48 10° 357° (N) 1,952 5.5 -7.0°
Sets 18:13:02 0° 1° (N) 2,855 6.3 -7.5°
